星链-3549 (STARLINK-3549 )

导读

STARLINK-3549是美国太空探索技术公司(SpaceX)星链卫星星座的成员,于2022年3月3日发射。星链计划旨在搭建全球卫星互联网,为全球提供宽带互联网服务,该卫星入轨后,进一步扩充了星链星座的规模,助力提升星座网络的覆盖能力与服务稳定性。

Basic Information
目录编号:
51891
目录名称:
STARLINK-3549
国际标识:
2022-022AR
轨道中心:
EARTH
卫星名称:
星链-3549
卫星全名:
星链-3549 (STARLINK-3549 )
卫星状态:
在轨 (已飞行1646 天)
发射日期:
2022-03-03 UTC
国别 :
美国 (US)
星等 :
--
Orbit Information
数据来源 国际轨道数据
星历时间: 2026-09-03T21:57:25+0800
19小时前
查看轨道信息
半长轴: 6840.8km
偏心率: 0.0001104
轨道倾角: 53.159°
近地点辐角 80.227°
升交点赤经 266.462°
平近点角 279.886°
近地点: 461.907km
远地点: 463.419km
周期: 93.847分钟
每日圈数: 15.344138
Detailed Information
固有亮度:
5
最大亮度:
2.5
卫星平台:
Starlink v1.5
覆盖范围:
全球
运营商:
太空探索技术公司
运营商所在国:
美国
制造商(研发单位):
太空探索技术公司
制造商所在国:
美国
使用方式:
暂无
Satellite Introduction
星链(Starlink)计划是由太空探索技术公司(SpaceX)提出的一个巨型低轨卫星互联网星座项目,计划在2019年至2024年间在太空搭建由约1.2万颗卫星组成的“星链”网络,其中1584颗将部署在地球上空550千米处的近地轨道,并从2020年开始工作。该卫星仍在工作。
2D Orbit Map
3D Orbit Map
Orbit Altitude Analysis Chart
Orbit Inclination Analysis Chart
Orbit Comprehensive Analysis Chart
View Comprehensive Chart
Conjunction Data List
Event ID Objects TCA Miss Dist (km) Collision Risk Probability Collision Risk Index (CRI) Action
CDM_260906-065005-189105-314321
2026-09-06T
06:50:23+0000
0.698 km
远距离
7.592533E-5 中风险 0.73
CDM_260906-112005-189106-489221
OBJECT S (64892)
2026-09-06T
11:20:14+0000
0.756 km
远距离
4.049523E-5 中风险 0.67
CDM_260906-045405-189106-454021
ARCSTONE (64540)
2026-09-06T
04:54:43+0000
1.348 km
极远距离
8.655277E-6 低风险 0.54
CDM_260906-120705-189106-489221
OBJECT S (64892)
2026-09-06T
12:07:13+0000
1.748 km
极远距离
2.536647E-6 低风险 0.43
CDM_260906-010005-189106-454021
ARCSTONE (64540)
2026-09-06T
01:00:05+0000
2.491 km
极远距离
1.612042E-6 低风险 0.39
CDM_260906-022805-189106-263421
2026-09-06T
02:28:40+0000
2.803 km
极远距离
1.193467E-6 低风险 0.37
CDM_260906-052805-019905-189121
2026-09-06T
05:28:22+0000
2.921 km
极远距离
1.120705E-6 低风险 0.36